Weather Roundup
Issued by NWS Chicago, IL

Home | Current Version | Previous Version | Graphics & Text | Print | Product List | Glossary On
Versions: 1 2 3 4 5 6 7 8 9 10 11 12 13 14 15 16 17 18 19 20 21 22 23 24 25 26 27 28 29 30 31 32 33 34 35 36 37 38 39 40 41 42 43 44 45 46 47 48 49 50
000
NZUS59 KLOT 010200
HRRLOT

CHICAGO AREA WEATHER ROUNDUP
NATIONAL WEATHER SERVICE CHICAGO/ROMEOVILLE IL
800 PM CST SAT JAN 31 2015

NOTE: "FAIR" INDICATES FEW OR NO CLOUDS BELOW 12,000 FEET WITH NO
SIGNIFICANT WEATHER AND/OR OBSTRUCTIONS TO VISIBILITY.

* THESE STATIONS ARE NOT UNDER NWS QUALITY CONTROL. THEY ALSO MAY NOT
  REPORT WEATHER SUCH AS PRECIPITATION OR FOG.

ILZ005-006-012>014-019>023-010300-
NORTHEAST ILLINOIS

CITY           SKY/WX    TMP DP  RH WIND       PRES   REMARKS
OHARE          FLURRIES  34  28  79 CALM      30.16S
MIDWAY         LGT SNOW  36  30  79 CALM      30.17F
AURORA         LGT SNOW  34  31  88 CALM      30.15F VSB 3/4
WAUKEGAN       CLOUDY    32  26  78 NE6       30.17S WCI  26
DUPAGE AIRPORT LGT SNOW  33  30  88 CALM      30.15F FOG
WHEELING       CLOUDY    33  25  72 E5        30.18F WCI  29
NORTHERLY IS     N/A     33  27  79 CALM        N/A
$$

WIZ051-052-058>065-066-070>072-010300-
SOUTHEAST WISCONSIN

CITY           SKY/WX    TMP DP  RH WIND       PRES   REMARKS
MILWAUKEE      CLOUDY    31  23  72 NE10      30.19S WCI  22
KENOSHA*       CLOUDY    32  25  75 NE9       30.17F WCI  24
RACINE*        CLOUDY    32  24  72 NE10      30.20S WCI  24
WAUKESHA       CLOUDY    27  21  80 NE8G18    30.19R WCI  18
$$

INZ001>003-010>013-019-020-010300-
NORTHWEST INDIANA

CITY           SKY/WX    TMP DP  RH WIND       PRES   REMARKS
GARY*          LGT RAIN  36  30  80 SW5       30.18F
MICHIGAN CITY* NOT AVBL
RENSSELAER*    NOT AVBL
$$

LMZ740>746-010300-
SOUTHERN LAKE MICHIGAN

STATION/POSITION TIME  SKY/WX   TEMP WIND        PRES    VSBY
                                AIR  DIR/SP/G
                 (UTC)          (F)  (DEG/KT/KT) (MB)    (MI)
HARRISON CRIB    0100            33   80/  7/  7   N/A
BURNHAM HARBOR   0200            33   CALM  /  3   N/A
CALUMET HARBOR   0100            36  210/  2/  4   N/A
BURNS HARBOR     NOT AVBL
MICHIGAN CITY    0100            34  230/  2/  3   N/A
$$

ABBREVIATIONS USED IN REMARKS
   TC - TEMPERATURE IN CELSIUS
  WCI - WIND CHILL INDEX
   HX - HEAT INDEX
  VSB - VISIBILITY
$$


USA.gov is the U.S. government's official web portal to all federal, state and local government web resources and services.